Дата Пункты Температура Давл., мм. Влажн., % Ветер Погодные явления
Воздуха Воды Направл. Скорость
24.09.14 02:00 Одесса 14.0 18.0 756 51 С-З 4 15 часов
24.09.14 11:00 Одесса 13.0 19.0 755 59 З 6 12 часов
24.09.14 08:00 Одесса 11.0 19.0 753 74 З 3 09 часов
24.09.14 05:00 Одесса 11.0 19.0 751 83 З 3 06 часов
24.09.14 02:00 Одесса 11.0 19.0 750 83 З 4 03 часа
23.09.14 08:00 Одесса 13.0 19.0 748 94 С-З 2 21 час
23.09.14 05:00 Одесса 16.0 19.0 747 66 С-З 3 18 часов
23.09.14 02:00 Одесса 17.0 19.0 748 72 С-З 3 15 часов
23.09.14 11:00 Одесса 17.0 20.0 748 75 С-З 3 12 часов
23.09.14 08:00 Одесса 14.0 20.0 747 90 С-З 3 09 часов
23.09.14 05:00 Одесса 18.0 20.0 746 97 Ю-В 3 06 часов
23.09.14 02:00 Одесса 16.0 20.0 747 99 С 6 03 часа
22.09.14 08:00 Одесса 18.0 20.0 750 97 Ю-В 5 21 час
22.09.14 05:00 Одесса 19.0 20.0 751 96 Ю 3 18 часов
22.09.14 02:00 Одесса 20.0 20.0 752 91 Ю-В 5 15 часов
22.09.14 11:00 Одесса 18.0 20.0 753 98 Ю 1 12 часов
22.09.14 08:00 Одесса 19.0 20.0 753 92 Ю-В 7 09 часов
22.09.14 05:00 Одесса 18.0 20.0 754 82 Ю-В 7 06 часов
22.09.14 02:00 Одесса 18.0 20.0 755 79 Ю-В 6 03 часа
21.09.14 08:00 Одесса 18.0 20.0 757 75 Ю-В 5 21 час
Количество строк
411 412 413 414 415 416 417
Page 413 of 417